STARLINK-36876, 67902

Orbit data source: Space-Track

STARLINK-36876, 67902 is a payload satellite owned by SpaceX/Seattle (US) in SSO that was launched on Sat, 21 Feb 2026 UTC via an FALCON 9 launch vehicle from the Air Force Western Test Range (AFWTR). Payload-class satellites include a variety of spacecraft equipped with specific instruments for various scientific and technological missions. These include communications satellites like Starlink; space stations such as the ISS; scientific satellites like the Hubble; Earth observation satellites from companies like Planet Labs, Umbra, and HawkEye 360; GPS; miniature CubeSats for education and research; and military/defense satellites.

Loading next visibility...
Identifier
67902, 2026-035Z
Orbit
SSO
Country
Flag of USUS
Related business
Manufacturer
SpaceX/Seattle
Mission
Operational Commercial Communications
Bus & Motor
STARLINK V2MO, Unknown motor
Mass
575 kg wet, ~530 kg dry
Launch date (UTC)
2026-02-21 (4 months ago)
Launch vehicle
FALCON 9
Launch site
Air Force Western Test Range (AFWTR)
Object type
Payload
Rocket body
Debris
Shape & HBR
Box + 2 Pan, 17.7 m
Radar Cross Section
36.964 m², Large (>1 m²)

Expand to show TLE details & history
Last TLE update: 12 hours ago

TLE from 12 hours ago
0 STARLINK-36876
1 67902U 26035Z   26171.34569979  .00019758  00000-0  61240-3 0  9995
2 67902  97.2849 104.5547 0002011  60.8823 299.2621 15.33461414 19724
Epoch: 2026-06-20T08:17Z
TLE epoch observation values (Epoch: 2026-06-20T08:17:48.461Z)
Latitude
-0.00004°
Longitude
71.54113°
Altitude
467.934 km
Speed
7.633 km/s
True Right ascension
06h 58m 13s
True Declination
0° 00' 00"
Sunlit
Object was in daylight at epoch
Visualization orbit readout
Latitude
Unknown
Longitude
Unknown
Altitude
Unknown
Speed
Unknown
Apparent Right ascension
Unknown
Apparent Declination
Unknown
Sunlit
N/A
Visualization observer readout
Local Sidereal Time
07:12:01
Azimuth
Unknown
Elevation
Unknown
Doppler factor
Unknown
Orbital elements
Apogee altitude
463.813 km
Perigee altitude
461.061 km
Semi-major axis
6,840.574 km
Eccentricity
0.0002
Inclination
97.2849°
RAAN
104.5547°
Arg. of periapsis
60.8823°
True anomaly
299.24199°
Mean anomaly
299.2621°
Eccentric anomaly
299.25205°
Mean motion
3.83623 °/min
Orbital period
93.84 mins
BSTAR
0.0006124
Loading maneuver chart data...
Computing Atmospheric mass density...
Loading historical data...
Loading historical data...
Loading historical data...
Loading historical data...
Loading historical data...
Loading historical data...
Loading historical data...

Documentation

Showing up to 5 results
|